Probability
0 0 0 0 0 0 0 0 0 0 0 0 0 0 0 0 0 0 0 0 0 0 0 0 0 0 0 0 0 0 0 0 0 0 0 0 0 0 0 0 0 0 0
0 0 0 0 0 0 0 0 0 0 0 0 0 0 0 0 0 0 0 0 0 0 0 0 0 0 0 0 0 0 0 0 0 0 0 0 0 0 0 0 0 0 0
0 0 0 0 0 0 0 0 0 0 0 0 0 0 0 0 0 0 0 0 0 0 0 0 0 0 0 0 0 0 0 0 0 0 0 0 0 0 0 0 0 0 0
0 0 0 0 0 0 0 0 0 0 0 0 0 0 0 0 0 0 0 0 0 0 0 0 0 0 0 0 0 0 0 0 0 0 0 0 0 0 0 0 0 0 0
0 0 0 0 0 0 0 0 0 0 0 0 0 0 0 0 0 0 0 0 0 0 0 0 0 0 0 0 0 0 0 0 0 0 0 0 0 0 0 0 0 0 0
0 0 0 0 0 0 0 0 0 0 0 0 0 0 0 0 0 0 0 0 0 0 0 0 0 0 0 0 0 0 0 0 0 0 0 0 0 0 0 0 0 0 0
0 0 0 0 0 0 0 0 0 0 0 0 0 0 0 0 0 0 0 0 0 0 0 0 0 0 0 0 0 0 0 0 0 0 0 0 0 0 0 0 0 0 0
0 0 0 0 0 0 0 0 0 0 0 0 0 0 0 0 0 0 0 0 0 0 0 0 0 0 0 0 0 0 0 0 0 0 0 0 0 0 0 0 0 0 0
0 0 0 0 0 0 0 0 0 0 0 0 0 0 0 0 0 0 0 0 0 0 0 0 0 0 0 0 0 0 0 0 0 0 0 0 0 0 0 0 0 0 0
0 0 0 0 0 0 0 0 0 0 0 0 0 0 0 0 0 0 0 0 0 0 0 0 0 0 0 0 0 0 0 0 0 0 0 0 0 0 0 0 0 0 0
0 0 0 0 0 0 0 0 0 0 0 0 0 0 0 0 0 0 0 0 0 0 0 0 0 0 0 0 0 0 0 0 0 0 0 0 0 0 0 0 0 0 0
0 0 0 0 0 0 0 0 0 0 0 0 0 0 0 0 0 0 0 0 0 0 0 0 0 0 0 0 0 0 0 0 0 0 0 0 0 0 0 0 0 0 0
0 0 0 0 0 0 0 0 0 0 0 0 0 0 0 0 0 0 0 0 0 0 0 0 0 0 0 0 0 0 0 0 0 0 0 0 0 0 0 0 0 0 0
0 0 0 0 0 0 0 0 0 0 0 0 0 0 0 0 0 0 0 0 0 0 0 0 0 0 0 0 0 0 0 0 0 0 0 0 0 0 0 0 0 0 0
0 0 0 0 0 0 0 0 0 0 0 0 0 0 0 0 0 0 0 0 0 0 0 0 0 0 0 0 0 0 0 0 0 0 0 0 0 0 0 0 0 0 0
0 0 0 0 0 0 0 0 0 0 0 0 0 0 0 0 0 0 0 0 0 0 0 0 0 0 0 0 0 0 0 0 0 0 0 0 0 0 0 0 0 0 0
0 0 0 0 0 0 0 0 0 0 0 0 0 0 0 0 0 0 0 0 0 0 0 0 0 0 0 0 0 0 0 0 0 0 0 0 0 0 0 0 0 0 0
0 0 0 0 0 0 0 0 0 0 0 0 0 0 0 0 0 0 0 0 0 0 0 0 0 0 0 0 0 0 0 0 0 0 0 0 0 0 0 0 0 0 0
0 0 0 0 0 0 0 0 0 0 0 0 0 0 0 0 0 0 0 0 0 0 0 0 0 0 0 0 0 0 0 0 0 0 0 0 0 0 0 0 0 0 0
0 0 0 0 0 0 0 0 0 0 0 0 0 0 0 0 0 0 0 0 0 0 0 0 0 0 0 0 0 0 0 0 0 0 0 0 0 0 0 0 0 0 0
0 0 0 0 0 0 0 0 0 0 0 0 0 0 0 0 0 0 0 0 0 0 0 0 0 0 0 0 0 0 0 0 0 0 0 0 0 0 0 0 0 0 0
0 0 0 0 0 0 0 0 0 0 0 0 0 0 0 0 0 0 0 0 0 0 0 0 0 0 0 0 0 0 0 0 0 0 0 0 0 0 0 0 0 0 0
0 0 0 0 0 0 0 0 0 0 0 0 0 0 0 0 0 0 0 0 0 0 0 0 0 0 0 0 0 0 0 0 0 0 0 0 0 0 0 0 0 0 0
0 0 0 0 0 0 0 0 0 0 0 0 0 0 0 0 0 0 0 0 0 0 0 0 0 0 0 0 0 0 0 0 0 0 0 0 0 0 0 0 0 0 0
0 0 0 0 0 0 0 0 0 0 0 0 0 0 0 0 0 0 0 0 0 0 0 0 0 0 0 0 0 0 0 0 0 0 0 0 0 0 0 0 0 0 0
0 0 0 0 0 0 0 0 0 0 0 0 0 0 0 0 0 0 0 0 0 0 0 0 0 0 0 0 0 0 0 0 0 0 0 0 0 0 0 0 0 0 0
Height
5730 5727 5724 5720 5717 5713 5709 5705 5701 5697 5693 5689 5685 5680 5676 5671 5667 5662 5657 5652 5647 5641 5635 5629 5623 5616 5610 5602 5595 5587 5580 5571 5566 5566 5557 5548 5539 5531 5524 5517 5510 5505 5500
5720 5716 5713 5709 5705 5701 5697 5693 5689 5685 5680 5676 5672 5667 5663 5658 5653 5648 5643 5637 5631 5625 5619 5612 5605 5598 5591 5583 5575 5567 5559 5550 5543 5540 5536 5526 5516 5507 5499 5493 5486 5480 5476
5709 5705 5701 5698 5694 5689 5685 5681 5676 5672 5668 5663 5658 5654 5649 5644 5638 5633 5627 5622 5615 5609 5602 5594 5587 5579 5571 5563 5555 5546 5538 5529 5521 5514 5511 5503 5493 5484 5476 5470 5464 5459 5454
5698 5694 5690 5686 5682 5677 5673 5668 5664 5659 5654 5650 5644 5639 5634 5629 5623 5617 5611 5605 5598 5591 5583 5575 5567 5559 5551 5542 5534 5525 5516 5508 5499 5491 5485 5479 5471 5462 5454 5448 5444 5439 5435
5686 5682 5678 5674 5669 5665 5660 5655 5651 5646 5641 5635 5630 5625 5619 5613 5607 5601 5595 5588 5581 5574 5566 5557 5548 5539 5530 5521 5512 5503 5494 5485 5476 5468 5461 5455 5449 5441 5434 5428 5424 5422 5418
5674 5670 5666 5661 5657 5652 5647 5642 5637 5632 5627 5621 5615 5610 5603 5597 5590 5584 5577 5570 5563 5555 5546 5537 5528 5518 5509 5499 5489 5479 5470 5460 5452 5445 5439 5433 5428 5421 5415 5410 5406 5404 5403
5662 5658 5653 5649 5644 5639 5634 5629 5624 5618 5613 5607 5601 5594 5588 5581 5573 5566 5559 5552 5544 5535 5526 5517 5507 5497 5486 5477 5467 5458 5448 5437 5429 5422 5418 5413 5408 5403 5398 5394 5391 5388 5388
5650 5645 5641 5636 5631 5626 5621 5615 5610 5604 5598 5592 5586 5579 5572 5564 5556 5549 5541 5533 5525 5515 5505 5495 5485 5475 5463 5453 5445 5437 5428 5419 5410 5403 5398 5395 5390 5386 5382 5379 5376 5375 5374
5637 5633 5628 5623 5618 5613 5608 5602 5596 5590 5584 5577 5570 5563 5555 5548 5538 5530 5521 5513 5505 5495 5484 5473 5461 5452 5442 5430 5422 5415 5409 5402 5393 5387 5383 5379 5375 5372 5368 5365 5363 5361 5362
5625 5620 5615 5610 5605 5599 5594 5588 5581 5575 5568 5562 5554 5546 5538 5529 5520 5510 5500 5492 5484 5475 5464 5452 5439 5428 5419 5408 5400 5394 5390 5384 5379 5374 5370 5366 5362 5359 5355 5353 5351 5349 5349
5612 5607 5602 5596 5591 5585 5579 5573 5566 5560 5553 5546 5539 5530 5520 5510 5500 5490 5478 5468 5459 5451 5441 5430 5419 5408 5398 5390 5383 5377 5372 5368 5364 5361 5357 5354 5350 5347 5344 5342 5340 5338 5338
5599 5594 5589 5583 5577 5570 5564 5558 5550 5543 5536 5528 5520 5512 5502 5491 5479 5468 5457 5446 5434 5425 5417 5408 5398 5389 5381 5374 5368 5363 5358 5354 5350 5347 5345 5342 5339 5336 5333 5331 5329 5328 5327
5586 5580 5575 5569 5562 5556 5549 5542 5534 5526 5518 5510 5501 5493 5484 5473 5459 5446 5435 5424 5412 5402 5394 5386 5379 5371 5365 5360 5354 5349 5345 5341 5338 5335 5332 5330 5327 5324 5322 5321 5319 5318 5317
5573 5567 5561 5555 5548 5541 5533 5525 5517 5508 5499 5490 5480 5470 5462 5452 5438 5426 5414 5403 5393 5383 5375 5368 5362 5355 5350 5346 5341 5337 5333 5329 5326 5323 5321 5318 5316 5314 5312 5310 5309 5308 5308
5559 5553 5546 5540 5533 5526 5518 5509 5499 5490 5477 5467 5457 5446 5436 5428 5417 5403 5391 5382 5373 5365 5358 5353 5347 5342 5338 5333 5329 5326 5322 5318 5315 5312 5310 5308 5305 5304 5302 5301 5300 5299 5298
5545 5538 5531 5524 5517 5509 5501 5493 5482 5470 5459 5445 5431 5419 5410 5400 5391 5381 5371 5361 5353 5346 5341 5337 5333 5329 5325 5321 5318 5315 5311 5308 5304 5302 5299 5297 5295 5294 5292 5291 5290 5289 5289
5529 5523 5516 5508 5499 5491 5481 5472 5464 5456 5442 5426 5412 5398 5386 5377 5368 5359 5351 5344 5337 5331 5327 5323 5319 5316 5313 5310 5307 5304 5301 5297 5294 5292 5289 5288 5286 5284 5283 5282 5281 5280 5279
5514 5506 5498 5490 5481 5471 5461 5450 5439 5429 5422 5412 5396 5379 5366 5357 5349 5340 5333 5327 5323 5318 5314 5310 5308 5305 5302 5299 5296 5293 5290 5287 5284 5282 5280 5278 5276 5275 5274 5272 5271 5270 5269
5497 5489 5480 5471 5461 5450 5439 5428 5417 5405 5395 5385 5376 5363 5349 5339 5332 5324 5317 5312 5309 5306 5302 5299 5296 5294 5291 5288 5285 5283 5280 5277 5275 5273 5271 5269 5267 5266 5264 5263 5262 5261 5260
5480 5471 5461 5451 5441 5430 5418 5406 5395 5383 5372 5362 5352 5342 5333 5324 5318 5311 5305 5300 5296 5294 5291 5289 5286 5283 5281 5278 5275 5273 5270 5268 5265 5263 5262 5260 5258 5257 5255 5254 5253 5252 5251
5462 5452 5441 5430 5419 5407 5396 5385 5373 5362 5351 5342 5333 5324 5315 5309 5303 5298 5294 5289 5286 5283 5281 5278 5276 5274 5271 5268 5266 5263 5261 5259 5256 5254 5253 5251 5249 5248 5247 5245 5244 5243 5242
5442 5432 5421 5409 5398 5386 5375 5363 5352 5342 5333 5324 5317 5310 5302 5295 5290 5286 5282 5279 5276 5273 5270 5268 5266 5264 5261 5259 5256 5254 5252 5250 5248 5246 5244 5243 5241 5239 5238 5237 5235 5234 5233
5421 5410 5400 5388 5377 5365 5354 5344 5334 5324 5316 5308 5302 5296 5290 5284 5279 5275 5272 5269 5266 5263 5261 5259 5257 5254 5252 5249 5247 5245 5243 5241 5239 5237 5236 5234 5232 5231 5229 5228 5227 5225 5224
5400 5389 5378 5367 5356 5345 5335 5326 5317 5309 5301 5294 5288 5283 5278 5273 5269 5265 5262 5259 5257 5254 5251 5249 5247 5245 5243 5241 5238 5236 5234 5232 5230 5229 5227 5225 5224 5222 5220 5219 5217 5216 5214
5379 5368 5357 5347 5336 5327 5318 5309 5301 5294 5287 5281 5276 5271 5266 5262 5258 5255 5252 5250 5247 5245 5242 5240 5238 5236 5234 5232 5230 5227 5225 5223 5221 5220 5218 5216 5215 5213 5211 5209 5208 5206 5205
5358 5347 5337 5327 5318 5309 5301 5294 5287 5280 5274 5268 5264 5259 5255 5251 5248 5246 5243 5240 5238 5236 5233 5231 5229 5227 5225 5223 5221 5219 5217 5215 5212 5210 5208 5207 5205 5203 5201 5200 5198 5196 5195
Wind_Speed
40 42 43 44 45 46 47 47 47 48 49 49 50 50 51 52 54 55 56 57 59 61 62 64 66 68 70 72 74 75 77 78 80 78 79 81 83 83 83 82 82 80 79
42 44 45 46 47 47 48 48 49 49 50 50 51 52 53 54 55 57 58 59 61 63 64 66 68 70 72 74 75 76 77 79 81 81 80 81 82 82 82 80 78 76 74
44 46 47 47 48 49 49 50 50 50 51 52 53 54 55 56 57 59 60 62 63 65 67 69 70 72 74 75 76 77 79 81 82 83 82 81 80 79 77 75 73 71 69
46 47 48 49 49 50 50 50 51 52 52 53 54 56 57 58 59 61 62 64 65 67 69 71 72 74 75 76 77 79 81 82 83 83 82 79 76 73 72 70 67 64 61
47 48 49 49 50 50 51 51 52 53 54 55 56 57 59 60 62 63 65 66 67 69 70 72 74 75 77 78 80 81 82 83 82 81 78 74 70 68 66 63 60 57 55
48 49 49 50 51 51 52 53 54 55 56 57 58 59 61 62 64 65 67 68 70 71 73 74 76 77 79 81 82 83 83 82 80 77 73 69 65 62 60 57 54 51 48
48 49 50 51 51 52 53 54 55 56 57 58 60 61 62 64 66 67 69 71 72 74 76 77 78 80 82 82 82 81 80 78 75 72 67 62 58 55 53 50 48 46 43
49 50 50 51 52 53 54 55 56 57 58 60 61 62 64 66 68 70 72 73 75 77 79 80 82 82 82 82 80 78 74 70 67 64 60 55 52 49 47 46 44 42 40
49 50 51 52 53 54 55 56 57 58 59 61 62 64 66 68 71 73 75 77 78 80 81 83 83 82 81 79 76 72 66 62 59 56 52 49 47 45 44 43 41 39 36
49 50 51 52 53 55 56 57 58 60 61 63 64 67 69 71 74 77 80 81 82 83 83 82 82 79 76 72 68 63 58 54 51 49 46 45 43 42 41 40 38 36 34
49 50 51 53 54 56 57 58 60 62 63 65 67 69 72 76 79 81 84 85 85 84 82 80 76 73 68 64 60 56 52 49 46 44 42 41 40 39 38 38 36 35 33
50 51 52 54 56 57 58 60 62 64 66 68 71 73 76 80 83 84 86 86 85 83 79 74 70 65 60 56 53 50 48 45 43 41 39 37 37 36 35 35 34 33 32
51 52 54 55 57 58 60 62 64 67 70 72 75 78 80 83 85 86 86 84 82 78 73 68 62 57 53 50 48 46 44 42 41 39 37 36 35 34 33 32 32 31 31
52 53 55 56 58 60 62 65 68 71 74 78 81 83 84 85 86 85 83 80 76 71 66 61 55 51 48 46 43 42 41 40 38 37 35 33 32 31 30 30 30 29 29
53 55 56 58 60 62 65 68 72 75 80 83 85 87 88 87 85 83 80 75 70 65 59 53 49 45 43 41 40 39 38 37 36 35 33 31 30 29 29 28 28 28 27
54 56 58 60 63 66 69 72 76 80 83 86 87 88 88 86 83 78 74 69 63 57 53 47 43 41 39 38 37 36 35 35 34 32 31 29 28 28 28 27 27 27 27
57 59 62 65 68 71 75 78 80 82 84 86 87 86 85 82 77 72 67 61 55 50 46 43 40 38 36 35 34 34 33 33 32 30 29 28 28 27 27 27 27 27 27
60 63 66 70 73 77 80 83 85 86 86 84 84 83 80 76 70 65 60 54 48 45 42 39 37 35 34 33 33 33 32 31 30 29 28 28 27 27 27 27 27 26 26
65 68 71 75 78 81 84 86 87 88 87 84 81 76 72 67 62 57 53 48 43 40 37 36 34 33 33 33 32 31 30 29 29 28 27 27 26 26 26 26 26 25 25
69 73 76 79 82 84 86 87 87 86 84 79 74 68 63 59 54 50 46 43 40 37 35 33 32 32 32 32 31 30 29 28 27 27 26 26 25 25 25 25 25 25 24
74 77 80 82 84 86 87 86 84 81 76 71 65 60 57 53 48 43 40 37 36 34 33 31 31 31 31 30 29 28 27 26 26 25 25 25 25 25 25 25 25 24 24
78 80 82 84 86 86 84 82 78 73 68 64 58 53 50 47 43 39 36 34 33 32 31 30 29 29 29 29 28 27 26 25 25 24 24 24 24 24 24 24 24 25 25
81 83 84 84 84 82 79 75 70 66 61 57 53 48 45 42 39 36 34 32 31 30 30 29 29 28 28 27 26 26 25 25 24 24 24 24 24 24 25 25 25 25 26
83 83 83 82 80 77 73 68 63 59 55 51 48 44 41 38 36 33 32 30 30 29 29 29 28 27 27 27 26 25 25 24 24 24 24 24 24 25 25 25 26 26 26
82 82 81 79 75 70 65 61 57 53 50 47 43 41 38 36 33 31 30 29 29 28 28 28 27 27 26 26 25 25 25 25 25 25 25 25 25 25 26 26 26 27 27
80 79 76 72 67 63 59 55 52 48 45 42 40 38 36 33 31 30 29 29 28 27 27 27 27 26 26 25 25 25 25 26 26 26 25 25 25 25 26 26 27 27 28
Wind_Direction
286 288 289 290 290 291 291 291 291 291 291 290 290 290 290 291 291 291 292 292 292 293 293 293 294 294 294 294 294 294 294 294 293 293 293 293 292 291 291 289 288 287 285
287 289 290 290 291 291 291 291 292 292 291 291 291 291 291 292 292 292 292 293 294 294 295 295 296 296 296 296 296 296 295 295 295 295 294 294 293 292 291 289 288 287 285
288 289 290 290 291 291 292 292 292 292 291 291 292 292 292 293 293 293 294 295 296 296 297 297 298 298 298 297 297 297 297 297 296 296 296 295 294 292 291 289 288 286 285
289 290 290 291 291 292 292 292 292 292 292 293 293 293 294 294 294 295 296 297 298 299 300 300 300 299 299 299 298 298 298 298 297 297 297 295 293 292 290 289 287 286 284
289 290 291 291 292 292 292 293 293 293 294 294 294 295 296 296 297 298 298 299 300 301 301 301 301 301 300 300 299 299 298 298 297 297 296 294 292 290 289 287 286 284 283
290 290 291 291 292 292 293 293 294 294 295 295 296 297 297 298 299 300 301 301 302 302 302 302 302 302 301 301 301 300 300 298 297 296 295 293 291 289 287 286 285 283 281
290 290 291 291 292 292 293 294 295 295 296 296 297 298 299 300 301 302 302 303 304 304 303 303 303 302 302 301 301 300 299 298 296 295 294 292 290 289 287 285 283 281 279
290 291 291 291 292 293 294 295 296 296 297 298 299 299 300 301 302 303 304 304 305 305 304 304 303 303 302 301 300 299 298 296 295 294 293 291 290 288 286 284 282 280 278
291 291 292 292 293 294 295 296 297 297 298 299 300 301 302 303 304 304 305 305 305 305 305 305 304 303 302 300 299 298 296 295 293 292 291 290 289 287 286 285 283 280 277
292 292 293 293 294 295 296 297 298 299 299 300 301 303 303 304 305 305 305 305 305 305 305 305 304 302 301 299 298 297 296 293 292 290 290 289 288 287 285 284 283 280 278
293 293 294 295 296 296 297 298 299 300 301 302 303 304 305 306 306 306 306 306 306 306 305 304 303 301 300 298 297 296 295 293 291 289 288 287 286 285 283 283 281 280 278
294 294 295 296 296 297 298 300 300 301 302 303 304 305 306 306 306 306 306 306 306 306 305 304 302 300 298 296 295 294 293 292 291 290 289 287 286 284 282 281 279 278 278
295 295 296 297 298 299 300 301 302 302 303 304 305 305 306 306 306 306 306 306 306 305 304 303 301 298 297 295 294 293 292 292 291 290 289 287 286 284 281 279 278 277 277
296 296 297 298 299 300 301 302 303 304 304 305 306 306 307 307 307 306 306 306 305 304 302 301 299 296 295 294 292 292 291 291 291 290 289 287 285 283 281 279 278 277 276
297 298 298 299 300 301 302 303 304 305 306 307 307 308 308 308 307 307 306 305 304 302 300 299 296 294 293 292 291 291 291 291 291 290 289 287 284 283 281 279 278 277 276
298 299 300 301 301 302 303 304 305 307 308 308 308 308 308 308 308 307 306 305 303 301 299 298 295 293 292 291 291 291 291 291 290 289 288 286 284 282 281 279 279 278 277
299 300 301 302 303 303 304 305 306 307 308 308 308 308 308 308 307 307 305 304 302 299 297 296 294 293 292 291 291 291 291 291 290 288 286 285 284 282 281 280 280 280 278
301 302 303 303 304 305 306 306 307 308 308 308 308 307 307 307 306 305 304 302 299 297 295 294 294 293 292 292 292 292 291 290 289 287 286 285 284 282 282 281 281 280 279
302 303 304 304 305 306 307 307 308 308 309 309 308 307 306 306 305 304 302 300 298 295 293 292 292 292 293 292 292 292 291 290 288 287 286 285 284 283 282 282 281 279 278
303 304 305 306 306 307 308 308 308 309 309 309 309 307 306 305 304 302 299 297 295 293 291 291 291 292 293 293 292 292 291 290 288 287 285 284 284 283 282 282 281 279 278
304 305 306 307 307 308 308 309 309 309 309 309 308 307 306 305 304 301 298 295 293 291 290 290 290 292 292 292 292 292 291 290 289 287 285 285 284 283 282 282 281 280 278
305 306 307 307 308 308 309 309 309 309 309 308 307 306 305 304 303 300 297 294 293 291 290 289 290 291 292 292 291 291 291 289 288 287 287 286 285 283 282 282 282 281 280
307 307 308 308 309 309 309 309 309 308 308 307 306 305 304 303 301 299 296 294 292 291 290 290 290 290 291 291 291 291 290 289 288 287 287 286 285 284 284 283 283 282 281
307 308 308 309 309 309 309 308 308 307 306 305 304 304 303 301 299 297 295 293 292 291 290 289 290 290 290 291 290 290 290 289 288 288 287 286 286 286 285 284 283 283 282
307 308 308 309 309 309 308 308 307 306 305 304 303 302 301 299 297 295 294 293 292 291 289 289 289 289 290 290 290 290 290 290 290 289 287 287 287 286 285 285 285 284 283
307 308 308 308 308 308 308 308 307 306 304 303 302 300 299 297 295 293 293 293 292 290 289 288 288 289 289 289 289 289 290 290 290 290 289 289 288 287 286 286 286 285 284